User: anonymous   Login
Location: Smithers
(54.7670°N, 127.1670°W)
Time: 23:25:39
(UTC-07:00)
Language:

ERBS - Orbit

View from above orbital plane
View from above orbital plane
View from above satellite
View from above satellite

Ground track
Ground track

The orbit data is extracted from the following two-line orbital elements,

1 15354U 84108B   17264.47871902 +.00002401 +00000-0 +60104-4 0  9999
2 15354 057.0073 083.6477 0005867 307.4781 052.5740 15.44248214812800
Epoch (UTC): 21 September 2017 11:29:21
Eccentricity: 0.0005867
inclination: 57.0073°
perigee height: 429 km
apogee height: 437 km
right ascension of ascending node: 83.6477°
argument of perigee: 307.4781°
revolutions per day: 15.44248214
mean anomaly at epoch: 52.5740°
orbit number at epoch: 81280

The dashed part of the orbit path shows where the satellite is in the earth's shadow,  

DLR